When you browse on this site, cookies collect data to enhance your experience and personalize the content and advertising you see.
Visit our Privacy Policy to learn more. By continuing to use the site, you agree to this use of cookies and data.
  • In Romania
  • List of Countries
  • For 7 days
  • Water Temperature
  • Weather Map
  • Weather Widgets
  • user-avatar
    Login

    Hourly Weather Santiago del Estero

    Today, 5 June, Friday

    Time Temperature Precipitation Wind Pressure Humidity
    00:00 +11°C° 0.1 mm 3 mps 748 mmHg 89%
    01:00 +10°C° 0.1 mm 3 mps 748 mmHg 90%
    02:00 +10°C° 0 mm 4 mps 748 mmHg 89%
    03:00 +10°C° 0 mm 3 mps 747 mmHg 90%
    04:00 +9°C° 0 mm 3 mps 747 mmHg 91%
    05:00 +9°C° 0 mm 2 mps 747 mmHg 92%
    06:00 +9°C° 0 mm 2 mps 747 mmHg 89%
    07:00 +9°C° 0 mm 2 mps 747 mmHg 86%
    08:00 +10°C° 0 mm 3 mps 747 mmHg 82%
    09:00 +12°C° 0 mm 3 mps 747 mmHg 74%
    10:00 +13°C° 0 mm 3 mps 747 mmHg 66%
    11:00 +15°C° 0 mm 4 mps 747 mmHg 58%
    12:00 +17°C° 0 mm 3 mps 746 mmHg 53%
    13:00 +19°C° 0 mm 3 mps 746 mmHg 47%
    14:00 +20°C° 0 mm 3 mps 745 mmHg 41%
    15:00 +19°C° 0 mm 3 mps 745 mmHg 44%
    16:00 +18°C° 0 mm 2 mps 744 mmHg 46%
    17:00 +18°C° 0 mm 2 mps 744 mmHg 49%
    18:00 +16°C° 0 mm 2 mps 744 mmHg 55%
    19:00 +14°C° 0 mm 1 mps 745 mmHg 61%
    20:00 +13°C° 0 mm 1 mps 745 mmHg 67%
    21:00 +12°C° 0 mm 1 mps 745 mmHg 67%
    22:00 +12°C° 0 mm 2 mps 745 mmHg 66%
    23:00 +12°C° 0 mm 2 mps 745 mmHg 66%

    Tomorrow, 6 June, Saturday

    Time Temperature Precipitation Wind Pressure Humidity
    00:00 +12°C° 0 mm 2 mps 745 mmHg 68%
    01:00 +11°C° 0 mm 1 mps 745 mmHg 70%
    02:00 +11°C° 0 mm 1 mps 744 mmHg 71%
    03:00 +10°C° 0 mm 1 mps 744 mmHg 73%
    04:00 +10°C° 0 mm 1 mps 744 mmHg 74%
    05:00 +9°C° 0 mm 1 mps 744 mmHg 76%
    06:00 +10°C° 0 mm 1 mps 744 mmHg 72%
    07:00 +11°C° 0 mm 1 mps 744 mmHg 68%
    08:00 +12°C° 0 mm 2 mps 745 mmHg 65%
    09:00 +14°C° 0 mm 2 mps 744 mmHg 58%
    10:00 +17°C° 0 mm 2 mps 744 mmHg 51%
    11:00 +19°C° 0 mm 3 mps 744 mmHg 44%
    12:00 +20°C° 0 mm 3 mps 743 mmHg 40%
    13:00 +22°C° 0 mm 3 mps 742 mmHg 37%
    14:00 +24°C° 0 mm 3 mps 741 mmHg 33%
    15:00 +22°C° 0 mm 3 mps 741 mmHg 36%
    16:00 +23°C° 0 mm 2 mps 741 mmHg 38%
    17:00 +21°C° 0 mm 2 mps 740 mmHg 40%
    18:00 +19°C° 0 mm 2 mps 741 mmHg 43%
    19:00 +18°C° 0 mm 2 mps 741 mmHg 45%
    20:00 +16°C° 0 mm 2 mps 741 mmHg 47%
    21:00 +15°C° 0 mm 2 mps 741 mmHg 49%
    22:00 +14°C° 0 mm 3 mps 741 mmHg 50%
    23:00 +13°C° 0 mm 3 mps 741 mmHg 52%

    Day after tomorrow, 7 June, Sunday

    Time Temperature Precipitation Wind Pressure Humidity
    00:00 +13°C° 0 mm 3 mps 741 mmHg 53%
    01:00 +12°C° 0 mm 3 mps 741 mmHg 55%
    02:00 +12°C° 0 mm 3 mps 741 mmHg 56%
    03:00 +11°C° 0 mm 3 mps 741 mmHg 57%
    04:00 +12°C° 0 mm 2 mps 741 mmHg 58%
    05:00 +10°C° 0 mm 2 mps 741 mmHg 60%
    06:00 +12°C° 0 mm 2 mps 742 mmHg 59%
    07:00 +12°C° 0 mm 2 mps 742 mmHg 59%
    08:00 +11°C° 0 mm 3 mps 743 mmHg 59%
    09:00 +14°C° 0 mm 3 mps 743 mmHg 53%
    10:00 +17°C° 0 mm 4 mps 743 mmHg 48%
    11:00 +20°C° 0 mm 4 mps 743 mmHg 43%
    12:00 +22°C° 0 mm 4 mps 742 mmHg 43%
    13:00 +23°C° 0 mm 4 mps 742 mmHg 43%
    14:00 +25°C° 0 mm 4 mps 741 mmHg 43%
    15:00 +24°C° 0 mm 3 mps 741 mmHg 47%
    16:00 +22°C° 0 mm 3 mps 741 mmHg 51%
    17:00 +21°C° 0 mm 2 mps 741 mmHg 55%
    18:00 +20°C° 0 mm 2 mps 741 mmHg 59%
    19:00 +18°C° 0 mm 2 mps 741 mmHg 62%
    20:00 +17°C° 0 mm 2 mps 741 mmHg 66%
    21:00 +16°C° 0 mm 2 mps 741 mmHg 69%
    22:00 +16°C° 0 mm 2 mps 742 mmHg 72%
    23:00 +15°C° 0 mm 2 mps 742 mmHg 75%

    8 June, Monday

    Time Temperature Precipitation Wind Pressure Humidity
    00:00 +15°C° 0 mm 2 mps 742 mmHg 79%
    01:00 +14°C° 0 mm 1 mps 741 mmHg 82%
    02:00 +13°C° 0 mm 1 mps 741 mmHg 86%
    03:00 +13°C° 0 mm 1 mps 742 mmHg 86%
    04:00 +13°C° 0 mm 1 mps 742 mmHg 87%
    05:00 +13°C° 0 mm 1 mps 742 mmHg 87%
    06:00 +13°C° 0 mm 1 mps 742 mmHg 86%
    07:00 +13°C° 0 mm 0 mps 743 mmHg 85%
    08:00 +14°C° 0 mm 0 mps 743 mmHg 84%
    09:00 +16°C° 0 mm 0 mps 743 mmHg 75%
    10:00 +18°C° 0 mm 0 mps 743 mmHg 66%
    11:00 +20°C° 0 mm 0 mps 743 mmHg 57%
    12:00 +21°C° 0 mm 0 mps 743 mmHg 54%
    13:00 +24°C° 0 mm 1 mps 742 mmHg 51%
    14:00 +25°C° 0 mm 1 mps 741 mmHg 47%
    15:00 +25°C° 0 mm 1 mps 741 mmHg 50%
    16:00 +24°C° 0 mm 1 mps 741 mmHg 53%
    17:00 +23°C° 0 mm 2 mps 741 mmHg 56%
    18:00 +21°C° 0 mm 2 mps 741 mmHg 61%
    19:00 +19°C° 0 mm 2 mps 742 mmHg 67%
    20:00 +19°C° 0 mm 1 mps 742 mmHg 72%
    21:00 +18°C° 0 mm 2 mps 743 mmHg 74%
    22:00 +17°C° 0 mm 2 mps 743 mmHg 75%
    23:00 +17°C° 0 mm 2 mps 743 mmHg 77%

    9 June, Tuesday

    Time Temperature Precipitation Wind Pressure Humidity
    00:00 +17°C° 0 mm 2 mps 743 mmHg 80%
    01:00 +17°C° 0 mm 2 mps 743 mmHg 83%
    02:00 +16°C° 0 mm 2 mps 743 mmHg 86%
    03:00 +16°C° 0 mm 2 mps 743 mmHg 87%
    04:00 +16°C° 0 mm 2 mps 742 mmHg 89%
    05:00 +16°C° 0 mm 2 mps 742 mmHg 91%
    06:00 +16°C° 0 mm 2 mps 742 mmHg 90%
    07:00 +17°C° 0 mm 2 mps 743 mmHg 89%
    08:00 +17°C° 0 mm 2 mps 743 mmHg 88%
    09:00 +18°C° 0 mm 2 mps 743 mmHg 84%
    10:00 +18°C° 0 mm 3 mps 743 mmHg 81%
    11:00 +19°C° 0 mm 3 mps 743 mmHg 77%
    12:00 +20°C° 0.1 mm 3 mps 742 mmHg 76%
    13:00 +20°C° 0.1 mm 3 mps 742 mmHg 75%
    14:00 +20°C° 0.1 mm 3 mps 741 mmHg 73%
    15:00 +20°C° 0 mm 3 mps 741 mmHg 75%
    16:00 +19°C° 0 mm 3 mps 740 mmHg 77%
    17:00 +19°C° 0 mm 3 mps 740 mmHg 78%
    18:00 +18°C° 0 mm 3 mps 741 mmHg 82%
    19:00 +17°C° 0 mm 2 mps 741 mmHg 85%
    20:00 +16°C° 0 mm 2 mps 741 mmHg 89%
    21:00 +16°C° 0 mm 2 mps 741 mmHg 89%
    22:00 +16°C° 0 mm 2 mps 741 mmHg 90%
    23:00 +16°C° 0 mm 2 mps 741 mmHg 90%

    10 June, Wednesday

    Time Temperature Precipitation Wind Pressure Humidity
    00:00 +16°C° 0 mm 1 mps 741 mmHg 91%
    01:00 +15°C° 0 mm 1 mps 741 mmHg 91%
    02:00 +15°C° 0 mm 1 mps 741 mmHg 92%
    03:00 +15°C° 0 mm 1 mps 741 mmHg 93%
    04:00 +15°C° 0 mm 1 mps 740 mmHg 93%
    05:00 +14°C° 0 mm 2 mps 740 mmHg 94%
    06:00 +15°C° 0 mm 1 mps 741 mmHg 94%
    07:00 +15°C° 0 mm 1 mps 741 mmHg 93%
    08:00 +15°C° 0 mm 1 mps 742 mmHg 93%
    09:00 +16°C° 0 mm 1 mps 742 mmHg 88%
    10:00 +17°C° 0 mm 2 mps 742 mmHg 84%
    11:00 +18°C° 0 mm 2 mps 742 mmHg 79%
    12:00 +19°C° 0 mm 2 mps 741 mmHg 75%
    13:00 +19°C° 0 mm 2 mps 740 mmHg 71%
    14:00 +20°C° 0 mm 2 mps 739 mmHg 68%
    15:00 +20°C° 0 mm 2 mps 739 mmHg 69%
    16:00 +19°C° 0 mm 2 mps 739 mmHg 70%
    17:00 +19°C° 0 mm 2 mps 739 mmHg 71%
    18:00 +20°C° 0 mm 1 mps 739 mmHg 72%
    19:00 +20°C° 0 mm 1 mps 739 mmHg 73%
    20:00 +19°C° 0 mm 1 mps 740 mmHg 73%
    21:00 +19°C° 0 mm 1 mps 739 mmHg 74%
    22:00 +19°C° 0 mm 1 mps 739 mmHg 75%
    23:00 +19°C° 0 mm 1 mps 739 mmHg 76%
    Show more